Portland, ME

4:45 PM EST on November 17, 2017 (GMT -0500)
Portland International

Weather History for KPWM - June, 2013

Change the Weather History Date:

Saturday, June 22, 2013

  Actual Average Record
Temperature  
Mean Temperature 69 °F 66 °F  
Max Temperature 80 °F 75 °F 95 °F (1941)
Min Temperature 58 °F 56 °F 45 °F (1947)
Degree Days  
Heating Degree Days 0 2  
Month to date heating degree days 70 93  
Since 1 June heating degree days 70 93  
Since 1 July heating degree days 6562 7094  
Cooling Degree Days 4 3  
Month to date cooling degree days 33 34  
Year to date cooling degree days 48 41  
Since 1 June cooling degree days 33 34  
Growing Degree Days 18 (Base 50)    
Moisture  
Dew Point 61 °F    
Average Humidity 74    
Maximum Humidity 93    
Minimum Humidity 54    
Precipitation  
Precipitation T in 0.11 in 1.76 in (1918)
Month to date precipitation 3.83 2.90  
Year to date precipitation 19.63 22.10  
Snow  
Snow 0.00 in 0.00 in 0.00 in (2002)
Month to date snowfall 0.0 0.0  
Since 1 June snowfall 0.0 0.0  
Since 1 July snowfall 98.0 61.9  
Snow Depth 0.00 in    
Sea Level Pressure  
Sea Level Pressure 30.16 in    
Wind  
Wind Speed 3 mph (SSE)    
Max Wind Speed 14 mph    
Max Gust Speed 20 mph    
Visibility 10 miles    
Events      
T = Trace of Precipitation, MM = Missing Value Source: NWS Daily Summary

Daily Weather History Graph

Daily Weather History Graph

Search for Another Location

Airport or City:

Trip Planner

Search our weather history database for the weather conditions in past years. The results will help you decide how hot, cold, wet, or windy it might be!

Date:

Astronomy

Jun. 22, 2013 Rise Set
Actual Time 5:00 AM EDT 8:26 PM EDT
Civil Twilight 4:24 AM EDT 9:02 PM EDT
Nautical Twilight 3:36 AM EDT 9:49 PM EDT
Astronomical Twilight 2:37 AM EDT 10:49 PM EDT
Moon 7:35 PM EDT (6/22) 4:11 AM EDT (6/22)
Length of Visible Light 16h 38m
Length of Day
15h 26m
Waxing Gibbous, 99% of the Moon is Illuminated
Jun 22
Waxing Gibbous
Jun 23
Full
Jun 30
Last Quarter
Jul 8
New
Jul 15
First Quarter

Hourly Weather History & Observations

Time (EDT) Temp. Heat Index Dew Point Humidity Pressure Visibility Wind Dir Wind Speed Gust Speed Precip Events Conditions
12:51 AM 62.1 °F - 57.9 °F 86% 30.20 in 10.0 mi WNW 3.5 mph - N/A   Clear
1:51 AM 62.1 °F - 57.9 °F 86% 30.21 in 10.0 mi Calm Calm - N/A   Clear
2:51 AM 62.1 °F - 57.9 °F 86% 30.19 in 10.0 mi Calm Calm - N/A   Clear
3:51 AM 61.0 °F - 57.0 °F 87% 30.19 in 10.0 mi Calm Calm - N/A   Clear
4:51 AM 60.1 °F - 57.0 °F 90% 30.19 in 9.0 mi Calm Calm - N/A   Clear
5:51 AM 59.0 °F - 57.0 °F 93% 30.20 in 9.0 mi Calm Calm - N/A   Clear
6:51 AM 63.0 °F - 59.0 °F 87% 30.19 in 10.0 mi East 3.5 mph - N/A   Clear
7:51 AM 66.9 °F - 60.1 °F 79% 30.18 in 9.0 mi North 3.5 mph - N/A   Clear
8:51 AM 69.1 °F - 61.0 °F 75% 30.18 in 9.0 mi North 3.5 mph - N/A   Partly Cloudy
9:51 AM 72.0 °F - 61.0 °F 68% 30.17 in 10.0 mi East 3.5 mph - N/A   Clear
10:51 AM 75.9 °F - 61.0 °F 60% 30.18 in 10.0 mi South 4.6 mph - N/A   Clear
11:51 AM 80.1 °F 81.5 °F 63.0 °F 56% 30.18 in 10.0 mi SSE 4.6 mph - N/A   Clear
12:51 PM 78.1 °F - 63.0 °F 60% 30.17 in 10.0 mi South 8.1 mph - N/A   Scattered Clouds
1:51 PM 75.9 °F - 63.0 °F 64% 30.15 in 10.0 mi SSE 11.5 mph - N/A   Partly Cloudy
2:51 PM 73.9 °F - 63.0 °F 68% 30.14 in 10.0 mi South 9.2 mph - N/A   Clear
3:51 PM 73.9 °F - 63.0 °F 68% 30.12 in 10.0 mi South 10.4 mph - N/A   Overcast
4:51 PM 75.0 °F - 64.9 °F 71% 30.11 in 10.0 mi South 4.6 mph - N/A   Mostly Cloudy
5:51 PM 75.0 °F - 64.9 °F 71% 30.11 in 10.0 mi South 4.6 mph - N/A   Mostly Cloudy
6:51 PM 73.9 °F - 64.9 °F 73% 30.11 in 10.0 mi Calm Calm - N/A   Scattered Clouds
7:51 PM 70.0 °F - 62.1 °F 76% 30.11 in 10.0 mi East 4.6 mph - N/A   Mostly Cloudy
8:51 PM 69.1 °F - 62.1 °F 78% 30.13 in 10.0 mi Calm Calm - N/A   Overcast
9:51 PM 68.0 °F - 62.1 °F 81% 30.13 in 9.0 mi Calm Calm - 0.00 in   Partly Cloudy
10:51 PM 68.0 °F - 63.0 °F 84% 30.13 in 9.0 mi Calm Calm - N/A   Overcast
11:51 PM 66.9 °F - 62.1 °F 84% 30.14 in 8.0 mi Calm Calm - N/A   Overcast